Regional Weather Roundup
Issued by NWS

Home | Current Version | Previous Version | Graphics & Text | Print | Product List | Glossary On
Versions: 1 2 3 4 5 6 7 8 9 10 11 12 13 14 15 16 17 18 19 20 21 22 23 24 25 26 27
000
ASUS45 KTFX 291410
RWRMT
MONTANA REGIONAL WEATHER ROUNDUP
NATIONAL WEATHER SERVICE GREAT FALLS MT
800 AM MDT MON MAY 29 2017

NOTE: "FAIR" INDICATES FEW OR NO CLOUDS BELOW 12000 FEET WITH NO
SIGNIFICANT WEATHER AND/OR OBSTRUCTIONS TO VISIBILITY.

MTZ001>007-043-291500-
WEST OF THE DIVIDE

CITY           SKY/WX    TMP DP  RH WIND       PRES   REMARKS
KALISPELL      SUNNY     59  46  62 N9        30.18S
MISSOULA       SUNNY     54  46  74 S3        30.22R
BUTTE          SUNNY     46  39  76 CALM      30.31S
MULLAN PASS    SUNNY     54  37  52 SE8       30.26R
ANACONDA         N/A     55  39  54 SE6       30.28S
DEER LODGE       N/A     50  41  71 E3        30.30S
EUREKA           N/A     57  46  67 CALM      30.19S
HAMILTON         N/A     54  39  58 S8        30.22S
PLAINS           N/A     52  47  83 CALM      30.17
RONAN            N/A     59  47  64 NE5       30.21R
$$

MTZ008-052>055-291500-
SOUTHWEST MONTANA

CITY           SKY/WX    TMP DP  RH WIND       PRES   REMARKS
BOZEMAN        SUNNY     53  44  71 CALM      30.28S
DILLON         SUNNY     48  39  71 SW7       30.29S
ENNIS          SUNNY     48  37  66 CALM      30.35S
THREE FORKS      N/A     47  43  86 CALM      30.24S
$$

MTZ009-010-012-014-046-048-049-054-291500-
EAST SLOPES AND CENTRAL MONTANA

CITY           SKY/WX    TMP DP  RH WIND       PRES   REMARKS
CUT BANK       SUNNY     52  37  56 SE5       30.24S
GREAT FALLS    SUNNY     53  47  79 SW5       30.24S
MALMSTROM AFB  SUNNY     52  47  83 CALM      30.24S
HELENA         SUNNY     51  45  79 CALM      30.27R
CHOTEAU          N/A     52  46  82 CALM      30.25S
CONRAD           N/A     53  52  97 CALM      30.23S
$$

MTZ011-013-016-021-045-047-050-051-291500-
NORTH CENTRAL MONTANA

CITY           SKY/WX    TMP DP  RH WIND       PRES   REMARKS
HAVRE          MOSUNNY   50  33  52 E5        30.24S
LEWISTOWN      SUNNY     49  39  68 E3        30.25F
N BAR RANCH      N/A     48  36  61 CALM      30.29S
CHINOOK          N/A     48  34  57 CALM      30.25S
FORT BENTON      N/A     54  43  66 MISG      30.25S
$$

MTZ017>020-022>027-061-062-291500-
NORTHEAST MONTANA

CITY           SKY/WX    TMP DP  RH WIND       PRES   REMARKS
GLASGOW        SUNNY     51  35  54 NW12      30.22S
JORDAN           N/A     52  34  50 W7        30.23S
SIDNEY         SUNNY     55  41  59 NW15      30.16R
WOLF POINT     SUNNY     57  37  47 NW13      30.20S
MALTA          SUNNY     46  36  66 CALM      30.24S
PLENTYWOOD       N/A     50  39  66 NW17      30.14S
POPLAR           N/A     54  37  54 NW15      30.19S
SCOBEY           N/A     50  36  58 W15       30.15
$$

MTZ028>42-056>058-291500-
SOUTHCENTRAL AND SOUTHEAST MONTANA

CITY           SKY/WX    TMP DP  RH WIND       PRES   REMARKS
BAKER          SUNNY     49  35  58 NW8       30.19R
BILLINGS       MOSUNNY   53  40  61 CALM      30.26R
LIVINGSTON     SUNNY     47  42  83 NW3       30.28F
MILES CITY     SUNNY     53  31  42 NW8       30.21S
BIG TIMBER     SUNNY     50  45  81 W9        30.31S
EKALAKA          N/A     49  36  61 NW6       30.15
FORSYTH          N/A     48  32  53 W7        30.23S
LAUREL           N/A     53  40  61 S2        30.23F
ROUNDUP          N/A     51  34  52 S3        30.15S
$$

REGIONAL REPORTS...DAKOTAS

CITY           SKY/WX    TMP DP  RH WIND       PRES   REMARKS
WILLISTON      CLOUDY    53  41  63 NW18      30.13S
MINOT          CLOUDY    55  44  66 NW24G31   30.02R
DICKINSON      SUNNY     51  38  60 NW14      30.10S
BEACH            N/A     50  41  71 NW15      30.19S
CROSBY         CLOUDY    52  43  71 NW18      30.11S
TIOGA          CLOUDY    50  50 100 NW21      30.11S
WATFORD CITY   CLOUDY    50  43  76 NW13      30.12S
BISMARCK       MOSUNNY   56  44  64 NW15G25   30.04R
GRAND FORKS    LGT RAIN  51  48  89 N17       29.86R
FARGO          LGT RAIN  52  49  89 NW20      29.86R
BUFFALO SD       N/A     54  37  52 NW16      30.10R
RAPID CITY     SUNNY     57  37  47 N12       30.16R
$$

REGIONAL REPORTS...WYOMING/IDAHO/WASHINGTON

CITY           SKY/WX    TMP DP  RH WIND       PRES   REMARKS
GILLETTE       CLOUDY    55  37  50 N13       30.23R
SHERIDAN       SUNNY     55  42  61 W8        30.25R
BUFFALO WY     SUNNY     54  40  59 N15G25    30.26S
CODY           SUNNY     56  40  55 CALM      30.30S
YELLOWSTONE LA   N/A     37  34  89 CALM      30.41R
IDAHO FALLS    SUNNY     52  43  71 N9        30.24S
SALMON         SUNNY     50  43  76 CALM      30.24S
BOISE          SUNNY     63  43  48 SE6       30.10R
SPOKANE        SUNNY     62  47  57 NE12      30.09S
$$

REGIONAL REPORTS...ALBERTA

CITY           SKY/WX    TMP DP  RH WIND       PRES   REMARKS
EDMONTON       MOSUNNY   54  37  54 E3        30.23F
CALGARY        MOSUNNY   54  36  50 S6        30.22S
LETHBRIDGE     MOSUNNY   54  43  66 SE3       30.21F
MEDICINE HAT   SUNNY     48  37  66 VRB3      30.23F
WATERTON GATE    N/A     52  43  71 SW5         N/A
CARDSTON         N/A     52  45  76 CALM        N/A
MILK RIVER       N/A     55  41  58 S3          N/A
ONEFOUR          N/A     54  34  47 E5          N/A
$$

REGIONAL REPORTS...SASKATCHEWAN

CITY           SKY/WX    TMP DP  RH WIND       PRES   REMARKS
SWIFT CURRENT  SUNNY     48  36  61 W7G21     30.23R
REGINA         MOSUNNY   54  41  62 N14G24    30.14S
SASKATOON      SUNNY     52  41  66 NW12      30.21S
CYPRESS HILLS    N/A     50  28  43 W1          N/A
ROCKGLEN         N/A     48  37  66 N13G18      N/A
$$




USA.gov is the U.S. government's official web portal to all federal, state and local government web resources and services.